DELTA 1 DEB, 7198

Orbit data source: Space-Track

DELTA 1 DEB, 7198 is space debris in SSO originally from a launch on Tue, 06 Nov 1973 UTC launched from the Air Force Western Test Range (AFWTR). Debris objects in space refer to the collection of defunct objects orbiting the Earth. Examples of debris include non-operational satellites, rocket bodies, and fragments generated from explosions, collisions, or faulty payload assembly.

Loading next visibility...
Identifier
7198, 1973-086FG
Orbit
SSO
Country
Flag of USUS
Related business
Manufacturer
Unknown
Mission
Spacecraft
Bus & Motor
Unknown
Mass
Unknown
Launch date (UTC)
1973-11-06 (52 years ago)
Launch vehicle
Unknown
Launch site
Air Force Western Test Range (AFWTR)
Object type
Payload
Rocket body
Debris
Shape & HBR
Unknown shape, 0.1 m
Radar Cross Section
Small (<0.1 m²)

Expand to show TLE details & history
Last TLE update: 9 hours ago

TLE from 9 hours ago
0 DELTA 1 DEB
1 07198U 73086FG  25292.76521237  .00000741  00000-0  29359-2 0  9994
2 07198 102.3219 217.9068 0143894 289.8143  99.2738 12.89278749427730
Epoch: 2025-10-19T18:21Z
TLE epoch observation values (Epoch: 2025-10-19T18:21:54.348Z)
Latitude
29.97987°
Longitude
-93.24973°
Altitude
1,327.232 km
Speed
7.187 km/s
True Right ascension
14h 02m 48s
True Declination
29° 50' 32"
Sunlit
Object was in daylight at epoch
Visualization orbit readout
Latitude
Unknown
Longitude
Unknown
Altitude
Unknown
Speed
Unknown
Apparent Right ascension
Unknown
Apparent Declination
Unknown
Sunlit
N/A
Visualization observer readout
Local Sidereal Time
22:46:18
Azimuth
Unknown
Elevation
Unknown
Doppler factor
Unknown
Orbital elements
Apogee altitude
1,412.429 km
Perigee altitude
1,191.406 km
Semi-major axis
7,680.054 km
Eccentricity
0.01439
Inclination
102.3219°
RAAN
217.9068°
Arg. of periapsis
289.8143°
True anomaly
100.89623°
Mean anomaly
99.2738°
Eccentric anomaly
100.08551°
Mean motion
3.22476 °/min
Orbital period
111.64 mins
BSTAR
0.0029359
Loading maneuver chart data...
Computing Atmospheric mass density...
Loading historical data...
Loading historical data...
Loading historical data...
Loading historical data...
Loading historical data...
Loading historical data...
Loading historical data...

Documentation

Showing up to 5 results
|